OneWeb SL0432

operational
NORAD ID: 50502 Int'l Des: 2021-132 Owner: ONEWEBN Country: UK Constellation: oneweb
LEOCIRCULARPOLARONEWEB_TYPE

关于 OneWeb SL0432

正在加载描述...

实时位置

正在加载3D地球...

即将过境

高度历史

Altitude vs Time

uPlot chart will show altitude changes over time

两行轨道根数

1 50502U 21132AK 26071.16261632 .00000167 00000-0 39107-3 0 9991
2 50502 87.9252 354.7005 0002243 62.2529 297.8830 13.18645314208797
Epoch: Mar 12, 2026 • Age: 19 hours

当前状态

高度 1192.7 km
速度 7.26 km/s
星下点 19.43°N, 74.15°E
发射日期 Dec 27, 2021
运行时间 4.2 years
类型 internet

技术详情

分类 Payload
质量 148.00 kg
干质量 140.00 kg
总质量 148.00 kg
长度 1.30 m
直径 1.00 m
跨度 5.00 m
形状 Trapezoid+2 pan
制造商 ONEWUS
平台类型 ARROW
阶段状态 In Orbit
所有者/国家 ONEWEBN/UK

大型星座

Loading constellations...